Погода в Корделевке

Украина / Винницкая область     49°31′18″N   28°32′47″E
темп.,
°C
ветер,
м/с
пор.,
м/с
влажн.,
%
обл.,
%
осадки,
мм/ч
давл.,
гПа
погр.,
м
21 июня, пн
пн2100:00+17в39949 0.0 1014212
03:00+16всв35967 0.0 1013108
06:00+17всв24964 0.0 101390
09:00+22всв348358 0.1 1012444
12:00+25вюв347298 0.3 10121131
15:00+26юв4468100 0.8 10111342
18:00+25юв3475100 0.4 1011930
21:00+21ююв22885 0.7 101220
22 июня, вт
вт2200:00+19юв22890 0.0 101322
03:00+18св1188100 0.0 101311
06:00+18св339052 0.0 101347
09:00+23всв4581100 0.0 1013399
12:00+26в557314 0.3 1013899
15:00+27в45625 0.4 10131383
18:00+26в34731 0.0 10121031
21:00+23в338388 0.1 101347
23 июня, ср
ср2300:00+21в37961 0.1 1013144
03:00+20в3494100 0.2 101381
06:00+19юв2392100 0.1 101467
09:00+23всв237599 0.1 1015247
12:00+27всв34627 0.0 1015789
15:00+28св336277 0.0 10141286
18:00+28ссв236627 0.0 10141426
21:00+23вюв22861 1.8 101412
24 июня, чт
чт2400:00+21в119078 1.1 101511
03:00+20вюв22912 1.1 101516
06:00+20вюв229060 0.0 101617
09:00+24вюв237469 0.0 1016297
12:00+27в23674 0.0 1016924
15:00+29вюв226016 0.0 10161453
18:00+29в115898 0.0 10151560
21:00+24в22775 0.2 101514
25 июня, пт
пт2500:00+22юв118245 0.1 101511
03:00+21всв118798 0.3 101511
06:00+21всв118852 0.0 101511
09:00+25вюв227925 0.0 1015349
12:00+27юв3364100 0.0 1014932
15:00+29юв2257100 0.0 10141187
18:00+28юв236699 0.0 10131245
21:00+24ююз2279100 0.2 101420